Regional Weather Roundup
Issued by NWS

Home | Current Version | Previous Version | Graphics & Text | Print | Product List | Glossary Off
Versions: 1 2 3 4 5 6 7 8 9 10 11 12 13 14 15 16 17 18 19 20 21 22 23 24 25 26 27 28 29 30 31 32 33 34 35 36 37 38 39 40 41 42 43 44 45 46 47 48 49 50

000
ASUS43 KLSX 061907
RWRMO

WEATHER SUMMARY FOR MISSOURI
NATIONAL WEATHER SERVICE SPRINGFIELD MO
200 PM CDT MON JUL 06 2015

NOTE: "FAIR" INDICATES FEW OR NO CLOUDS BELOW 12,000 FEET WITH NO
       SIGNIFICANT WEATHER AND/OR OBSTRUCTIONS TO VISIBILITY.
       CURRENT SKY AND/OR WEATHER CONDITIONS ARE NOT AVAILABLE FOR
       CHILLICOTHE AND FARMINGTON.

MOZ001>031-035>038-043-044-053-054-062000-
...NORTHERN AND WESTERN MISSOURI...

CITY           SKY/WX    TMP DP  RH WIND       PRES   REMARKS
KANSAS CTY INT PTSUNNY   88  77  69 S14       29.87F HX 100
KANSAS C DTWN  MOSUNNY   90  75  61 S16G23    29.85F HX 100
LEE`S SUMMIT   MOSUNNY   87  75  67 SW17      29.89F HX  96
ST JOSEPH      PTSUNNY   87  75  67 S12       29.84F HX  96
CHILLICOTHE      N/A     88  75  65 S9        29.88F HX  97
KIRKSVILLE     PTSUNNY   87  74  64 S14       29.90F HX  95

$$
MOZ066>068-077>081-088>096-101>105-062000-
...SOUTHWEST MISSOURI...

CITY           SKY/WX    TMP DP  RH WIND       PRES   REMARKS
SPRINGFIELD    CLOUDY    83  72  69 S17       30.00S
JOPLIN         CLOUDY    84  74  71 S16       29.97S HX  91

$$
MOZ032>034-039>042-045>050-055>058-069>072-062000-
...CENTRAL MISSOURI...

CITY           SKY/WX    TMP DP  RH WIND       PRES   REMARKS
COLUMBIA       CLOUDY    85  75  72 S13       29.95F HX  93
JEFFERSON CITY CLOUDY    85  74  69 S8        29.94F HX  92
ROLLA          CLOUDY    81  73  76 S9G22     29.98F
SEDALIA        PTSUNNY   88  75  65 S14G23    29.94F HX  97
WHITEMAN AFB   PTSUNNY   86  76  70 S21       29.90F HX  96
WARRENSBURG    PTSUNNY   86  72  62 S10G20    29.90F HX  92
OSAGE BEACH    CLOUDY    84  73  70 SW12G17   29.98S HX  91

$$
MOZ051-052-059>065-062000-
...EAST CENTRAL MISSOURI...

CITY           SKY/WX    TMP DP  RH WIND       PRES   REMARKS
ST LOUIS INTL  TSTM      81  71  71 SE9       29.97S
SPIRIT OF STL  CLOUDY    87  75  67 SW8       29.94F HX  96
ST CHARLES     CLOUDY    89  74  60 SW7       29.93F HX  98

$$
MOZ072>076-082>087-097>100-106>115-062000-
...SOUTH CENTRAL AND SOUTHEAST MISSOURI...

CITY           SKY/WX    TMP DP  RH WIND       PRES   REMARKS
CAPE GIRARDEAU PTSUNNY   84  75  74 S12       30.03F HX  92
FARMINGTON     PTSUNNY   86  73  66 SW9       30.06S HX  93
POPLAR BLUFF   CLOUDY    81  74  79 S10       30.03F
WEST PLAINS    CLOUDY    83  72  69 S9        30.04F

$$


USA.gov is the U.S. government's official web portal to all federal, state and local government web resources and services.